Location: Bullenkuhlen
(53.7689°N, 9.7495°E)
Time: 23:54:49
(UTC+00:00)

Cosmos 2181 Rocket - Pass Details

Date: 09 April 2020
Orbit: 952 x 1014 km, 82.9° (Epoch: 03 June)

Event Time Altitude Azimuth Distance (km) Brightness Sun altitude
Rises 19:28:58 0° 171° (S) 3,673 6.6 -11.3°
Reaches altitude 10° 19:31:32 10° 166° (SSE) 2,721 5.9 -11.6°
Maximum altitude 19:37:32 53° 92° (E) 1,182 4.1 -12.3°
Drops below altitude 10° 19:43:30 10° 18° (NNE) 2,704 6.5 -13.1°
Sets 19:46:03 0° 14° (NNE) 3,650 7.3 -13.4°
